This is the latest recevied weather packets stored in our database for station/object KE5VT. If no packets are shown the sender has not sent any weather packets the latest 10 day(s).
| Time | Temp. | Humidity | Pressure | Rain* | Wind** | Luminosity | Snow |
|---|---|---|---|---|---|---|---|
| 1787748078 | 21.67° C | 93% | 1015.7 hPa | 0 mm | - | 57 W/m² | - |
| 1787747777 | 21.67° C | 93% | 1015.6 hPa | 0 mm | - | 62 W/m² | - |
| 1787747473 | 21.67° C | 92% | 1015.4 hPa | 0 mm | - | 51 W/m² | - |
| 1787747167 | 21.67° C | 92% | 1015.4 hPa | 0 mm | - | 52 W/m² | - |
| 1787746864 | 21.67° C | 91% | 1015.4 hPa | 0 mm | - | 49 W/m² | - |
| 1787746563 | 21.67° C | 91% | 1015.6 hPa | 0 mm | - | 34 W/m² | - |
| 1787746257 | 21.11° C | 91% | 1015.1 hPa | 0 mm | - | 38 W/m² | - |
| 1787745956 | 21.11° C | 90% | 1015.4 hPa | 0 mm | - | 38 W/m² | - |
| 1787745655 | 21.11° C | 91% | 1015.3 hPa | 0 mm | - | 33 W/m² | - |
| 1787745350 | 21.11° C | 91% | 1015 hPa | 0 mm | - | 26 W/m² | - |
| 1787745050 | 20.56° C | 91% | 1015.1 hPa | 0 mm | - | 22 W/m² | - |
| 1787744746 | 20.56° C | 91% | 1015 hPa | 0 mm | - | 20 W/m² | - |
| 1787744442 | 20.56° C | 91% | 1015 hPa | 0 mm | - | 18 W/m² | - |
| 1787744137 | 20.56° C | 91% | 1015 hPa | 0 mm | - | 17 W/m² | - |
| 1787743833 | 20.56° C | 91% | 1014.8 hPa | 0 mm | - | 14 W/m² | - |
| 1787743532 | 20.56° C | 91% | 1014.8 hPa | 0 mm | - | 13 W/m² | - |
| 1787743228 | 20.56° C | 91% | 1014.9 hPa | 0 mm | - | 11 W/m² | - |
| 1787742924 | 20° C | 91% | 1014.7 hPa | 0 mm | - | 8 W/m² | - |
| 1787742619 | 20° C | 91% | 1014.6 hPa | 0 mm | - | 6 W/m² | - |
| 1787742315 | 20° C | 91% | 1014.7 hPa | 0 mm | - | 5 W/m² | - |
| 1787742010 | 20° C | 91% | 1014.5 hPa | 0 mm | - | 3 W/m² | - |
| 1787741706 | 20° C | 90% | 1014.5 hPa | 0 mm | - | 2 W/m² | - |
| 1787741401 | 20° C | 90% | 1014.6 hPa | 0 mm | - | 1 W/m² | - |
| 1787741101 | 20.56° C | 90% | 1014.5 hPa | 0 mm | - | 0 W/m² | - |
| 1787740795 | 20.56° C | 90% | 1014.3 hPa | 0 mm | - | 0 W/m² | - |
* Rain latest hour (hover to see other rain measurements)
** Current wind speed in m/s (hover to see current wind gust speed)